Location: Gwatt
(46.7204°N, 7.6223°E)
Time: 00:47:05
(UTC+00:00)

Transit 2A - Pass Details

Date: 27 January 2021
Orbit: 601 x 958 km, 66.7° (Epoch: 07 March)

Event Time Altitude Azimuth Distance (km) Brightness Sun altitude
Rises 04:09:19 0° 247° (WSW) 3,440 - -29.1°
Reaches altitude 10° 04:12:14 10° 258° (WSW) 2,447 - -28.6°
Maximum altitude 04:17:01 28° 317° (NW) 1,438 - -27.8°
Exits shadow 04:19:30 20° 359° (N) 1,716 7.8 -27.4°
Drops below altitude 10° 04:21:28 10° 17° (NNE) 2,246 8.6 -27.0°
Sets 04:24:02 0° 29° (NNE) 3,110 9.5 -26.6°
